Regional Weather Roundup
Issued by NWS

Home | Current Version | Previous Version | Text Only | Print | Product List | Glossary On
Versions: 1 2 3 4 5 6 7 8 9 10 11 12 13 14 15 16 17 18 19 20 21 22 23 24 25 26 27 28 29 30 31 32 33 34 35 36 37 38 39 40 41 42 43 44 45 46 47 48 49 50
000
ASUS44 KBMX 202310
RWRAL

ALABAMA REGIONAL WEATHER ROUNDUP
NATIONAL WEATHER SERVICE BIRMINGHAM AL
500 PM CST THU NOV 20 2014

NOTE: "FAIR" INDICATES FEW OR NO CLOUDS BELOW 12,000 FEET
WITH NO SIGNIFICANT WEATHER AND/OR OBSTRUCTIONS TO VISIBILITY.

THE REMARK "TC" DENOTES TEMPERATURE IN DEGREES CELSIUS.

ALZ001>011-014-016>018-020-210000-
NORTH ALABAMA

CITY           SKY/WX    TMP DP  RH WIND       PRES   REMARKS
MUSCLE SHOALS    N/A     49  26  41 MISG      30.23R
HUNTSVILLE     PTCLDY    49  31  49 NW5       30.21S
DECATUR        CLEAR     46  30  53 CALM      30.22R
HALEYVILLE     FAIR      47  33  58 CALM      30.23R
GADSDEN        CLEAR     48  32  53 CALM      30.20S
$$

ALZ012-013-022-023-030>036-040>044-210000-
WEST CENTRAL ALABAMA

CITY           SKY/WX    TMP DP  RH WIND       PRES   REMARKS
TUSCALOOSA     CLOUDY    58  45  62 CALM      30.21S
$$

ALZ015-024>027-033>036-040>044-210000-
CENTRAL ALABAMA

CITY           SKY/WX    TMP DP  RH WIND       PRES   REMARKS
BIRMINGHAM     PTCLDY    55  36  48 CALM      30.22S
MONTGOMERY     PTCLDY    59  42  53 NW3       30.23R
SHELBY CO ARPT PTCLDY    53  44  71 CALM      30.21S
MAXWELL AFB    PTCLDY    57  45  62 SW1       30.22S
GREENVILLE     CLOUDY    61  43  51 CALM      30.21R
$$

ALZ019-021-028-029-037-038-045>048-210000-
EAST CENTRAL ALABAMA

CITY           SKY/WX    TMP DP  RH WIND       PRES   REMARKS
ANNISTON       CLEAR     49  36  61 CALM      30.21R
ALEXANDER CITY PTCLDY    55  41  60 CALM      30.22R
AUBURN         CLEAR     54  39  58 W3        30.25R
$$

ALZ051>064-210000-
SOUTHWEST ALABAMA

CITY           SKY/WX    TMP DP  RH WIND       PRES   REMARKS
MOBILE         MOCLDY    58  45  62 S8        30.23R
BROOKLEY FIELD CLEAR     58  45  62 S5        30.25R
EVERGREEN      CLEAR     58  44  60 CALM      30.22R
$$

ALZ049-050-065>069-210000-
SOUTHEAST ALABAMA

CITY           SKY/WX    TMP DP  RH WIND       PRES   REMARKS
DOTHAN         PTCLDY    58  42  55 SW5       30.26R
OZARK          PTCLDY    59  43  54 S2        30.22R
TROY           PTCLDY    57  44  62 N3        30.23R
EUFAULA        FAIR      52  44  74 CALM      30.21R
$$



USA.gov is the U.S. government's official web portal to all federal, state and local government web resources and services.